• MPC Preparation (Info)

  • MPEC 2014-F29 : 2014 FZ6

    The following Minor Planet Electronic Circular may be linked-to from your own Web pages, but must not otherwise be redistributed electronically.

    A form allowing access to any MPEC is at the bottom of this page.


    Read MPEC 2014-F28 Read MPEC 2014-F30


    M.P.E.C. 2014-F29                                Issued 2014 Mar. 24, 10:15 UT
    
         The Minor Planet Electronic Circulars contain information on unusual
             minor planets and routine data on comets.  They are published
       on behalf of Commission 20 of the International Astronomical Union by the
              Minor Planet Center, Smithsonian Astrophysical Observatory,
                              Cambridge, MA 02138, U.S.A.
    
                 Prepared using the Tamkin Foundation Computer Network
    
                                  MPC@CFA.HARVARD.EDU
                URL https://www.minorplanetcenter.net/    ISSN 1523-6714
    
                                       2014 FZ6
    
    Observations:
         K14F06Z* C2014 03 23.27151 11 03 06.56 -02 53 50.2          20.4 VqEF029G96
         K14F06Z  C2014 03 23.27661 11 03 06.18 -02 52 49.9          19.5 VqEF029G96
         K14F06Z  C2014 03 23.28171 11 03 05.79 -02 51 50.1          19.7 VqEF029G96
         K14F06Z  C2014 03 23.28681 11 03 05.40 -02 50 50.1          20.0 VqEF029G96
         K14F06Z  C2014 03 23.39445 11 02 57.91 -02 29 41.3                qEF029G96
         K14F06Z  C2014 03 23.39495 11 02 57.84 -02 29 37.4          19.9 VqEF029G96
         K14F06Z  C2014 03 23.39545 11 02 57.75 -02 29 32.3                qEF029G96
         K14F06Z  C2014 03 23.42924 11 02 55.86 -02 22 51.8          20.2 VqEF029G96
         K14F06Z  C2014 03 23.42974 11 02 55.82 -02 22 45.6          20.5 VqEF029G96
         K14F06Z  C2014 03 23.43023 11 02 55.78 -02 22 40.4          20.2 VqEF029G96
         K14F06Z  C2014 03 23.43073 11 02 55.80 -02 22 34.2          19.7 VqEF029G96
         K14F06Z  C2014 03 23.43122 11 02 55.74 -02 22 28.4          19.7 VqEF029G96
         K14F06Z KC2014 03 23.96831 11 02 43.32 -00 37 14.8          20.5 VqEF029958
         K14F06Z KC2014 03 23.97513 11 02 42.87 -00 35 55.1          20.0 VqEF029958
         K14F06Z KC2014 03 23.98190 11 02 42.42 -00 34 35.1          20.3 VqEF029958
         K14F06Z KC2014 03 23.99014611 02 41.75 -00 33 00.3          19.5 VqEF029I93
         K14F06Z KC2014 03 23.99663311 02 41.37 -00 31 43.6          20.3 VqEF029I93
         K14F06Z KC2014 03 24.00525211 02 40.81 -00 30 01.5          20.2 VqEF029I93
         K14F06Z  C2014 03 24.36214 11 02 27.38 +00 40 28.6          20.1 VqEF029G96
         K14F06Z  C2014 03 24.36267 11 02 27.28 +00 40 35.2          20.6 VqEF029G96
         K14F06Z  C2014 03 24.36317 11 02 27.25 +00 40 40.2          20.0 VqEF029G96
         K14F06Z  C2014 03 24.36430 11 02 27.17 +00 40 54.3          19.9 VqEF029G96
         K14F06Z  C2014 03 24.36480 11 02 27.15 +00 41 00.3          20.1 VqEF029G96
    
    Observer details:
    958 Observatoire de Dax.  Observers P. Dupouy, J. B. de Vanssay.  Measurer
        P. Dupouy.  0.43-m f/2.7 reflector + CCD.
    G96 Mt. Lemmon Survey.  Observer R. E. Hill.  Measurers E. J. Christensen,
        A. R. Gibbs, A. D. Grauer, R. E. Hill, J. A. Johnson, R. A. Kowalski,
        S. M. Larson, F. C. Shelly.  1.5-m reflector + CCD.
    I93 St Pardon de Conques.  Observer F. Losse.  0.40-m f/3.7 reflector + CCD.
    
    Orbital elements:
    2014 FZ6                                                 Earth MOID = 0.0720 AU
    Epoch 2014 May 23.0 TT = JDT 2456800.5                  MPC
    M 249.43246              (2000.0)            P               Q
    n   1.01316393     Peri.  171.01753     +0.99534385     +0.09509690
    a   0.9817846      Node   183.63806     -0.09638717     +0.98264446
    e   0.0907019      Incl.   14.34656     +0.00037801     +0.15926849
    P   0.97           H   24.6           G   0.15           U   7
    Residuals in seconds of arc
    140323 G96  0.0   0.0     140323 G96  0.0   0.3+    140323 I93  0.2+  0.7-
    140323 G96  0.0   0.3+    140323 G96  0.2-  0.3-    140324 I93  0.2+  0.3-
    140323 G96  0.1-  0.0     140323 G96  0.5+  0.0     140324 G96  0.7+  0.1-
    140323 G96  0.2-  0.0     140323 G96  0.0   0.0     140324 G96  0.3-  0.3+
    140323 G96  0.2+  0.8+    140323 958  0.1+  1.1+    140324 G96  0.2-  0.6-
    140323 G96  0.3-  1.2-    140323 958  0.2+  0.3+    140324 G96  0.4-  0.1+
    140323 G96 (1.2-  2.0-)   140323 958  0.3+  0.5+    140324 G96  0.2-  0.3+
    140323 G96  0.1+  0.0     140323 I93  0.5-  0.8-
    
    Ephemeris:
    2014 FZ6                 a,e,i = 0.98, 0.09, 14                  q = 0.8927
    Date    TT    R. A. (2000) Decl.     Delta      r     Elong.  Phase     V
    2014 02 22    11 23 42.9 -53 02 57   0.1569  1.0653   115.1    57.2    22.8
    ...
    2014 03 09    11 14 00.9 -38 59 41   0.1038  1.0702   136.3    39.8    21.4
    ...
    2014 03 17    11 07 23.4 -21 56 37   0.08324 1.0707   154.7    23.4    20.5
    ...
    2014 03 23    11 03 16.1 -03 46 02   0.07642 1.0701   163.7    15.2    20.0
    2014 03 24    11 02 42.6 -00 29 51   0.07623 1.0699   162.8    16.0    20.0
    2014 03 25    11 02 11.8 +02 46 34   0.07633 1.0697   161.3    17.4    20.1
    ...
    2014 03 31    11 00 16.1 +21 07 06   0.08258 1.0680   145.5    32.0    20.7
    ...
    2014 04 08    11 01 29.9 +38 38 35   0.1022  1.0644   126.0    49.6    21.6
    ...
    2014 04 23    11 15 05.5 +54 22 12   0.1519  1.0538   104.6    67.4    23.0
    
    A. U. Tomatic                (C) Copyright 2014 MPC           M.P.E.C. 2014-F29
    

    Read MPEC 2014-F28 Read MPEC 2014-F30


    MPEC number:

    Enter an MPEC number in one of the following forms:

    • 1997-B01 (the full form)
    • J97B01 (the packed version of the full form)
    • B01 (the abbreviated form)